This demonstration page uses our WeatherBlox Daily Observations layout. Learn more.

Left ArrowRight Arrow

41.86663, -103.66717

Hourly Observations for September 30, 2018

Temp ( °F °C ) Dew Point ( °F °C ) Humidity (%) Winds ( mph kmh ) Pressure ( in mb ) Visibility ( mi km ) Precip ( " mm )
12:53 am 00:53 Cloudy 48 8.9 44 6.7 86 86 E 5 7 30.07 1018 10 16 N/A
1:53 am 01:53 Cloudy 48 8.9 43 6.1 83 83 NE 12 19 30.07 1018 10 16 N/A
2:53 am 02:53 Cloudy 48 8.9 43 6.1 83 83 NE 10 17 30.08 1019 10 16 N/A
3:53 am 03:53 Cloudy 47 8.3 44 6.7 90 90 ENE 7 11 30.09 1019 10 16 N/A
4:42 am 04:42 Cloudy with Mist and Fog 46 8 45 7 93 93 E 8 13 30.15 1021 5 8 N/A
4:53 am 04:53 Cloudy with Mist and Fog 46 7.8 46 7.8 100 100 E 7 11 30.12 1020 5 8 N/A
5:03 am 05:03 Cloudy with Mist and Fog 46 7.8 46 7.8 100 100 E 6 9 30.15 1021 4 6 N/A
5:15 am 05:15 Cloudy with Mist and Fog 46 7.8 46 7.8 100 100 E 7 11 30.15 1021 3 5 N/A
5:28 am 05:28 Cloudy with Mist and Fog 45 7.2 45 7.2 100 100 E 7 11 30.18 1022 3 5 N/A
5:53 am 05:53 Cloudy with Mist and Fog 45 7.2 45 7.2 100 100 E 7 11 30.15 1021 3 5 N/A
6:53 am 06:53 Cloudy with Mist and Fog 45 7.2 45 7.2 100 100 E 6 9 30.17 1022 3 5 N/A
6:57 am 06:57 Cloudy with Mist and Fog 45 7.2 45 7.2 100 100 E 5 7 30.21 1023 3 5 N/A
7:14 am 07:14 Cloudy with Mist and Fog 46 8 46 8 100 100 E 8 13 30.18 1022 3 4 N/A
7:26 am 07:26 Cloudy with Mist and Fog 46 8 46 8 100 100 E 6 9 30.18 1022 3 4 N/A
7:38 am 07:38 Cloudy with Mist and Fog 46 7.8 46 7.8 100 100 E 9 15 30.18 1022 2 3 N/A
7:48 am 07:48 Cloudy with Mist and Fog 46 8 46 8 100 100 E 6 9 30.18 1022 2 3 N/A
7:53 am 07:53 Cloudy with Mist and Fog 46 7.8 46 7.8 100 100 E 7 11 30.18 1022 2 3 N/A
7:59 am 07:59 Cloudy with Mist and Fog 46 7.8 46 7.8 100 100 E 8 13 30.18 1022 3 5 N/A
8:08 am 08:08 Cloudy with Mist and Fog 46 8 46 8 100 100 ESE 8 13 30.18 1022 6 10 N/A
8:53 am 08:53 Cloudy with Mist and Fog 47 8.3 47 8.3 100 100 E 9 15 30.20 1023 5 8 N/A
8:57 am 08:57 Cloudy with Mist and Fog 47 8.3 47 8.3 100 100 E 10 17 30.18 1022 6 10 N/A
9:25 am 09:25 Cloudy with Mist and Fog 47 8.3 47 8.3 100 100 E 10 17 30.18 1022 3 4 N/A
9:36 am 09:36 Cloudy with Mist and Fog 47 8.3 47 8.3 100 100 E 9 15 30.18 1022 3 5 N/A
9:40 am 09:40 Cloudy with Mist and Fog 46 8 46 8 100 100 E 9 15 30.18 1022 3 4 N/A
9:53 am 09:53 Cloudy with Light Rain 47 8.3 47 8.3 100 100 E 9 15 30.20 1023 3 5 N/A
10:05 am 10:05 Cloudy with Light Rain 47 8.3 47 8.3 100 100 E 13 20 30.18 1022 3 4 N/A
10:43 am 10:43 Cloudy with Light Rain 47 8.3 47 8.3 100 100 E 13 20 30.18 1022 2 3 0.01 0.25
10:53 am 10:53 Cloudy with Light Rain 47 8.3 47 8.3 100 100 ESE 14 22 30.19 1022 2 2 0.01 0.25
11:08 am 11:08 Cloudy with Light Rain 46 8 46 8 100 100 ESE 14 22 30.18 1022 2 3 N/A
11:23 am 11:23 Cloudy with Mist and Fog 47 8.3 47 8.3 100 100 SE 14 22 30.18 1022 4 6 N/A
11:53 am 11:53 Cloudy 47 8.3 47 8.3 100 100 SE 13 20 30.17 1022 10 16 N/A
12:00 pm 12:00 Cloudy 48 9 48 9 100 100 SE 14 22 30.15 1021 10 16 N/A
12:14 pm 12:14 Cloudy 49 9.4 48 8.9 97 97 SE 13 20 30.12 1020 10 16 N/A
12:53 pm 12:53 Cloudy 49 9.4 47 8.3 93 93 ESE 14 22 30.15 1021 10 16 N/A
1:53 pm 13:53 Cloudy 49 9.4 47 8.3 93 93 ESE 13 20 30.12 1020 10 16 N/A
2:41 pm 14:41 Cloudy 50 10 47 8.3 89 89 ESE 13 20 30.09 1019 10 16 N/A
2:53 pm 14:53 Cloudy 50 10 47 8.3 89 89 SE 13 20 30.10 1019 10 16 N/A
3:53 pm 15:53 Cloudy 49 9.4 47 8.3 93 93 SE 12 19 30.08 1019 10 16 N/A
4:53 pm 16:53 Cloudy 49 9.4 46 7.8 90 90 ESE 14 22 30.07 1018 10 16 N/A
5:53 pm 17:53 Cloudy 49 9.4 46 7.8 90 90 SE 14 22 30.08 1019 10 16 N/A
6:35 pm 18:35 Cloudy 49 9.4 46 7.8 90 90 ESE 14 22 30.06 1018 10 16 N/A
6:53 pm 18:53 Cloudy 49 9.4 46 7.8 90 90 ESE 10 17 30.09 1019 10 16 N/A
7:25 pm 19:25 Cloudy 48 8.9 45 7.2 89 89 ESE 16 26 30.12 1020 10 16 N/A
7:53 pm 19:53 Cloudy 47 8.3 46 7.8 97 97 SE 14 22 30.10 1019 8 13 N/A
8:53 pm 20:53 Cloudy 47 8.3 46 7.8 97 97 SE 13 20 30.10 1019 9 14 N/A
9:04 pm 21:04 Cloudy 46 8 46 8 100 100 SE 14 22 30.12 1020 8 13 N/A
9:12 pm 21:12 Cloudy 46 8 46 8 100 100 SE 12 19 30.12 1020 7 11 N/A
9:29 pm 21:29 Cloudy with Mist and Fog 47 8.3 47 8.3 100 100 SE 13 20 30.12 1020 5 8 N/A
9:53 pm 21:53 Cloudy with Mist and Fog 46 7.8 46 7.8 100 100 ESE 13 20 30.09 1019 4 6 N/A
10:53 pm 22:53 Cloudy with Mist and Fog 46 7.8 46 7.8 100 100 ESE 13 20 30.08 1019 6 10 N/A
11:17 pm 23:17 Cloudy 46 7.8 46 7.8 100 100 ESE 13 20 30.09 1019 7 11 N/A
11:53 pm 23:53 Cloudy with Mist and Fog 46 7.8 46 7.8 100 100 ESE 14 22 30.07 1018 4 6 N/A

Powered by AerisWeather